{"data":{"norad_id":64546,"intl_designator":"2025-135U","name":"FORGESTAR-1","alt_names":[],"object_type":"PAYLOAD","status":"ACTIVE","operator":null,"country":"UK","launch_date":"2025-06-23","launch_site_code":"AFWTR","launch_vehicle":null,"mission":null,"orbit_class":"UNKNOWN","rcs_meters":null,"size_class":null,"mass_kg":null,"dimensions":null,"purposes":[],"wikipedia_slug":null,"has_3d_model":false,"image_url":null,"decayed_at":null,"tle_current":{"epoch":"2026-05-25T01:25:45.539904Z","epoch_age_seconds":77103,"freshness":"FRESH","line1":"1 64546U 25135U   26145.05955486  .00006589  00000+0  27691-3 0  9996","line2":"2 64546  97.4661 260.9384 0000771 128.1907 231.9400 15.23763050 51383","mean_motion":15.2376305,"eccentricity":7.71e-5,"inclination_deg":97.4661,"raan_deg":260.9384,"arg_perigee_deg":128.1907,"mean_anomaly_deg":231.94,"bstar":0.00027691,"rev_number":5138,"period_min":94.502882190246,"perigee_km":493.97238858842,"apogee_km":495.03214956371,"semimajor_km":6872.6392690761,"source":"CELESTRAK","updated_at":"2026-05-25T13:38:04.585039Z"}}}